Theta_e
312 312 312 312 312 312 312 313 313 314 315 315 315 314 314 313 313 316 317 318 319 317 317 318 317 317 318 318 319 323 323 328 340 341 339 340 338 338 338 341 346 347 346 347 347 347 346 345 345 344 344 344 343 343 342 340 339 338 338 338 337 336 336 333 334 335 332 332 334 334 336 338 340 340 339 339 339 340 340 340 340 339 337 334 333 335
312 312 312 312 312 313 312 313 314 314 314 314 314 314 314 314 314 316 318 318 319 318 317 318 318 317 319 318 319 323 324 330 339 341 339 339 338 339 341 344 347 347 346 346 345 345 344 342 343 342 342 343 343 342 341 340 340 340 340 339 337 336 335 334 335 336 335 334 334 334 335 336 336 338 340 339 339 340 340 340 338 336 335 333 332 335
312 312 313 313 313 313 313 313 314 314 314 314 314 313 313 314 315 316 317 318 319 318 317 318 317 317 319 319 320 322 325 334 340 341 340 340 341 342 344 345 346 346 344 341 338 340 341 339 340 341 340 342 342 341 341 341 341 341 341 340 339 338 337 337 337 337 336 335 335 335 334 333 333 334 337 338 339 340 338 337 335 333 334 335 335 336
312 312 313 313 313 312 313 313 313 314 314 314 314 312 312 315 315 313 316 319 319 318 317 318 318 317 319 319 320 321 322 334 339 339 340 340 343 345 345 345 344 341 340 337 334 336 339 338 339 341 340 340 341 341 340 340 341 341 341 340 339 338 337 338 338 337 336 335 336 335 334 333 333 332 334 337 338 338 337 335 334 333 334 336 338 337
313 313 314 313 313 312 312 313 313 313 313 314 314 313 313 315 315 315 316 318 318 318 318 317 315 315 318 319 320 321 320 330 335 338 342 342 342 343 342 342 339 337 338 338 336 336 337 337 339 341 340 339 341 342 341 340 341 341 341 340 339 338 337 337 336 335 335 335 334 334 334 333 333 330 329 335 339 338 336 335 335 335 335 336 337 336
313 314 314 313 313 313 312 312 313 313 313 313 314 314 314 316 317 317 318 317 315 315 317 317 312 313 318 318 319 321 320 325 332 337 342 342 341 341 340 338 336 336 337 337 336 336 336 337 338 339 338 339 342 343 341 341 342 340 340 339 338 338 337 338 336 335 334 334 333 334 333 331 331 329 329 335 339 338 337 337 338 337 336 336 336 333
313 314 314 313 313 313 312 312 314 314 313 312 314 315 315 316 317 316 317 315 312 312 317 317 313 312 316 317 319 321 320 321 333 339 340 340 340 339 339 336 336 337 336 336 336 336 336 338 339 338 339 340 342 343 341 342 341 340 338 338 337 337 338 338 337 336 335 333 332 331 329 329 330 331 334 337 338 338 338 338 339 337 336 336 335 332
313 314 314 313 313 313 312 312 314 315 313 313 315 316 315 316 316 317 316 314 314 315 317 317 315 312 312 316 320 320 320 318 329 340 339 339 339 338 338 336 336 337 337 336 337 337 338 339 338 338 340 342 342 343 342 340 339 339 338 337 337 338 338 338 337 336 335 331 328 329 328 332 335 335 336 338 338 339 338 337 337 335 334 335 334 333
313 313 314 314 313 313 312 313 314 315 314 314 316 316 315 316 316 317 315 314 315 315 313 315 315 312 311 316 321 319 321 319 322 337 338 338 339 338 336 336 337 339 338 336 335 335 337 338 336 336 340 341 341 342 341 339 339 339 338 337 337 338 337 338 337 335 334 330 329 331 332 335 338 336 337 338 338 339 337 337 337 336 335 336 335 335
313 314 315 314 313 313 313 314 314 315 315 315 316 316 316 316 316 316 315 313 314 314 313 314 314 312 310 314 319 318 319 320 319 331 338 338 340 338 335 337 338 338 338 336 333 332 337 338 336 336 337 336 338 340 339 340 340 340 339 337 336 337 337 337 337 335 334 331 329 332 334 337 337 335 336 338 338 337 337 337 337 337 337 337 336 336
314 314 315 315 315 314 314 315 315 315 315 315 316 316 315 316 315 315 315 313 313 314 313 313 314 312 311 312 317 319 319 323 322 324 336 338 338 336 336 337 338 337 336 336 333 333 337 338 337 337 334 331 337 340 338 337 338 339 338 335 333 335 336 337 337 335 333 331 330 332 332 335 334 332 334 338 338 337 338 338 338 338 337 336 336 335
314 314 314 315 315 315 314 314 315 315 315 315 315 315 313 313 314 313 313 313 313 313 312 313 315 313 311 313 317 320 321 322 323 323 331 337 337 337 337 336 337 336 335 336 334 334 338 339 338 336 333 330 334 338 337 335 336 336 335 331 330 332 334 336 336 335 334 332 331 330 329 331 331 330 333 337 338 338 338 338 337 337 336 335 334 332
313 314 314 315 316 316 315 313 314 314 314 314 314 313 312 311 312 312 312 312 313 312 313 314 314 313 312 315 318 320 321 321 322 327 333 336 337 338 337 336 336 336 336 336 335 336 339 339 337 335 334 331 331 335 337 336 335 334 333 331 329 330 333 335 334 333 334 332 329 328 329 329 330 330 333 336 337 338 337 337 336 335 334 333 332 331
312 314 314 314 314 315 315 313 312 313 313 314 312 312 311 310 313 314 312 312 313 312 313 314 314 313 312 316 320 320 321 324 323 326 333 336 337 337 336 335 335 335 336 336 336 337 339 338 338 339 339 338 337 338 337 336 334 333 333 332 332 332 333 333 332 331 330 328 327 327 327 327 328 331 334 336 337 337 336 336 334 333 332 332 331 330
312 314 314 313 314 314 315 313 313 313 313 313 313 313 312 311 313 313 311 312 313 312 312 314 314 312 312 316 321 322 321 323 324 324 329 335 336 337 337 336 335 336 336 336 335 336 336 335 338 340 341 340 339 338 336 335 334 334 334 334 334 334 332 330 329 329 328 327 328 328 328 327 327 330 334 335 336 336 335 334 332 331 331 331 329 328
311 313 313 314 315 314 314 314 315 315 312 313 314 312 312 312 313 313 312 313 313 313 313 313 314 314 315 319 321 322 321 321 323 322 324 333 337 338 339 338 338 337 337 337 335 335 335 336 337 339 340 339 337 336 336 336 335 335 334 335 335 333 330 328 327 328 328 329 330 328 328 328 327 331 335 335 334 334 332 331 330 329 329 328 326 326
312 313 314 315 315 314 314 315 315 314 313 312 312 311 313 315 315 313 313 314 314 314 314 313 313 314 316 319 320 320 322 320 323 328 331 336 339 340 340 340 339 339 340 340 337 335 337 339 339 338 339 338 336 335 336 336 336 336 334 335 335 333 330 329 329 330 329 330 332 331 331 331 331 334 335 333 332 331 329 329 328 327 326 325 323 323
313 313 314 314 314 315 316 315 315 315 315 313 311 312 314 315 315 314 313 314 314 314 314 312 312 313 313 316 319 320 321 320 323 333 335 334 337 339 341 340 340 339 341 342 339 337 338 341 340 339 339 338 336 335 336 337 337 335 334 333 333 332 330 330 331 331 330 330 333 335 335 335 334 334 333 332 331 330 329 328 327 326 325 323 323 322
313 313 314 314 314 315 315 315 314 315 315 314 312 314 314 313 313 313 313 314 313 314 314 313 312 312 312 314 318 319 321 321 326 336 338 335 337 340 341 342 341 340 341 342 341 339 340 341 340 339 339 338 335 335 336 337 335 334 334 333 332 332 332 332 332 331 331 333 335 336 335 334 333 332 331 331 330 329 328 327 326 325 324 323 323 322
314 314 314 314 314 315 314 314 313 313 314 314 314 314 314 313 313 312 313 313 313 314 314 313 313 313 314 317 318 319 322 322 327 337 341 340 341 343 343 343 342 341 342 342 341 341 340 341 340 339 339 338 337 336 336 336 334 334 335 335 334 334 333 333 332 332 334 335 335 335 333 332 331 330 329 329 328 328 327 326 325 324 323 323 322 320
314 315 315 314 314 314 313 313 313 313 314 313 313 313 312 313 313 313 313 312 312 313 314 314 314 313 316 319 320 320 323 323 325 330 336 341 343 343 343 343 342 340 340 341 342 341 340 341 340 339 339 339 338 337 337 336 335 335 337 336 335 335 334 334 334 335 336 336 334 333 332 331 329 329 328 327 327 326 325 324 323 323 323 322 319 318
314 315 316 314 313 313 313 314 314 315 315 314 313 312 312 312 312 312 313 312 312 313 313 315 314 313 318 323 321 321 324 324 325 325 329 338 344 344 343 342 341 338 337 340 341 341 339 340 341 340 339 339 337 337 336 338 338 336 336 336 334 334 335 335 335 336 335 334 333 331 330 330 329 328 327 326 326 325 323 322 322 322 321 319 317 317
315 315 315 314 313 313 314 314 315 315 316 314 314 314 314 313 312 311 312 313 313 312 314 314 313 316 325 330 328 328 327 324 324 325 325 331 339 343 343 342 341 338 339 341 341 340 340 340 340 339 339 338 338 337 337 338 339 336 336 336 335 335 336 335 335 335 334 333 332 330 329 329 329 327 326 325 324 323 322 321 320 320 319 318 317 318
316 315 315 314 313 313 314 314 315 315 315 315 314 315 315 314 314 313 314 315 314 312 314 314 314 319 328 332 332 332 332 330 331 332 327 324 333 341 342 342 342 341 341 342 341 340 339 339 339 338 338 339 339 339 338 338 338 336 336 336 336 335 336 335 334 332 331 331 330 329 328 327 327 326 325 324 322 321 321 320 319 318 318 318 318 318
315 315 315 314 313 313 314 314 314 314 314 315 314 315 315 315 315 315 315 317 315 313 314 313 315 322 328 330 330 330 333 335 336 339 337 331 335 340 341 342 343 343 343 342 341 340 339 338 338 338 339 340 339 338 338 338 338 336 336 336 335 335 334 333 332 331 330 329 327 326 326 326 326 325 324 322 320 319 319 319 318 318 318 319 319 319
314 315 315 314 313 314 314 314 314 313 314 315 315 315 315 315 315 315 315 315 314 315 314 313 317 325 329 328 325 328 335 335 336 341 343 341 340 340 341 342 343 343 343 342 340 340 339 338 339 338 338 339 339 338 338 337 337 336 335 335 334 334 333 332 331 329 328 326 326 325 325 325 325 323 321 319 318 318 319 318 318 318 319 320 320 320
314 315 315 314 314 313 313 314 314 314 313 313 314 314 315 315 316 317 316 314 314 315 314 314 320 325 326 325 323 327 335 336 336 339 340 342 343 342 341 342 342 343 342 341 340 339 339 339 338 338 338 338 338 337 337 336 335 335 334 333 332 332 331 330 329 328 326 325 325 325 325 325 324 321 319 318 318 318 318 318 318 319 319 320 320 321
314 315 316 315 315 314 313 314 314 314 314 313 314 315 315 315 316 318 317 316 316 316 314 316 323 323 322 323 323 328 335 335 336 335 334 335 337 340 342 342 342 342 341 340 339 339 339 338 338 338 338 337 337 336 336 335 334 333 332 331 331 330 329 328 327 326 325 325 325 326 326 324 321 319 318 318 318 318 318 318 319 319 320 320 320 320
315 314 315 315 315 315 314 315 314 314 314 314 314 315 316 316 316 318 318 318 318 317 315 317 324 323 321 320 323 330 334 334 334 334 333 332 333 337 340 340 338 340 340 340 339 339 338 337 337 337 337 336 336 335 335 334 333 333 332 331 330 329 327 326 325 324 325 325 325 325 323 320 318 318 318 317 317 318 318 319 319 320 320 320 319 318
315 314 315 315 315 315 314 314 315 315 314 314 314 315 316 317 317 318 318 318 319 319 318 320 322 323 322 322 327 333 334 334 334 334 333 333 334 337 340 338 337 337 338 338 338 338 337 337 336 336 336 336 335 334 334 333 333 332 330 329 328 326 325 325 325 325 326 325 323 321 319 317 317 318 317 317 317 318 319 319 319 319 319 318 317 317
314 314 315 315 314 315 315 316 316 315 314 314 314 315 316 317 318 317 317 319 320 319 321 321 319 323 327 328 330 333 333 333 333 333 334 334 336 338 338 337 337 337 337 336 335 336 336 335 334 335 336 335 335 334 333 332 331 329 327 326 325 324 324 325 325 325 323 321 319 318 317 317 317 317 317 317 317 318 319 319 318 317 317 317 316 316
314 314 314 315 315 315 315 316 316 316 316 316 315 315 316 316 318 318 317 319 319 318 322 320 317 324 332 331 329 330 330 330 332 333 334 333 335 337 336 336 337 337 336 335 334 335 334 334 333 334 334 334 333 332 331 329 328 326 325 324 323 323 325 325 323 321 319 318 318 317 317 317 317 317 317 317 317 318 318 317 317 317 316 316 315 315
314 313 314 315 314 315 316 317 318 318 318 318 317 317 318 317 317 319 318 320 321 320 321 318 317 327 334 332 330 330 328 330 332 332 333 333 334 336 335 335 336 336 336 335 333 333 334 334 333 332 331 331 330 329 328 326 325 324 323 323 323 325 326 323 319 317 317 317 317 317 317 317 317 317 316 317 317 317 317 317 317 316 315 315 315 315
314 314 315 315 314 316 320 321 320 319 318 319 322 323 323 320 317 318 319 320 322 321 320 318 321 330 332 331 333 332 330 331 332 331 332 333 335 335 335 335 335 335 334 333 331 331 332 333 331 330 329 328 328 327 326 325 325 325 325 325 325 325 323 319 317 316 317 317 317 317 317 317 317 316 316 317 317 317 317 316 316 315 315 314 314 314
315 315 315 315 313 317 322 321 320 320 320 322 325 325 324 322 319 318 319 320 321 322 320 318 322 328 330 330 331 331 330 331 331 330 331 334 335 335 334 333 332 332 331 330 329 328 329 330 329 328 327 327 327 326 326 325 325 325 324 323 322 320 319 317 317 317 317 316 316 316 316 316 316 316 317 317 317 317 316 316 316 316 315 314 314 314
316 315 315 314 314 317 320 320 320 321 321 322 325 324 323 322 320 318 319 319 320 321 320 318 321 326 328 329 330 330 329 329 329 329 332 334 334 333 333 332 331 331 329 328 328 327 327 328 327 326 325 323 323 323 323 323 323 322 321 319 317 316 316 316 316 316 316 316 316 316 315 315 315 316 317 317 316 317 316 316 316 315 315 314 314 313
315 315 314 314 314 316 318 318 319 319 320 323 323 323 323 321 320 319 318 319 320 321 320 317 320 325 327 328 329 329 328 329 329 329 331 334 333 332 332 331 330 329 328 328 328 328 327 327 326 324 322 321 320 320 319 318 318 318 317 316 315 315 314 314 315 315 316 315 315 315 315 315 316 316 317 316 316 316 315 315 315 314 314 314 313 313
315 315 314 314 314 314 315 317 317 316 318 321 321 322 324 323 321 319 318 318 319 319 319 317 321 327 327 327 329 330 329 329 330 330 332 333 333 332 331 329 328 328 327 327 326 326 325 325 324 322 321 321 320 318 316 315 315 316 315 315 315 315 314 314 314 315 315 315 315 315 314 315 316 316 316 316 315 315 315 315 314 314 313 313 312 312
315 314 314 314 314 314 314 316 316 316 319 322 322 322 323 324 325 323 319 318 320 321 322 319 319 327 329 328 329 330 330 330 330 330 332 332 331 331 328 326 326 326 325 325 324 323 322 321 320 320 319 319 318 317 316 315 315 315 315 315 315 314 314 314 314 314 314 315 315 315 314 315 315 315 315 315 315 315 315 314 314 313 313 312 312 311
315 315 314 314 314 314 315 315 316 318 321 323 323 323 322 323 326 325 320 320 323 327 328 326 324 327 328 327 329 329 329 330 330 330 332 331 329 328 326 325 324 324 323 322 321 320 319 318 318 318 318 317 317 316 316 316 316 315 314 314 315 315 314 314 314 314 314 314 315 314 314 314 314 314 314 314 314 314 314 313 313 313 312 311 311 310
315 315 314 314 314 314 315 315 315 319 322 323 322 323 322 322 323 323 321 321 324 327 328 328 329 329 326 325 327 329 329 330 330 331 331 330 328 326 325 323 323 322 320 319 318 319 318 318 319 319 318 318 317 316 316 316 315 315 315 315 314 314 314 314 313 313 314 314 314 314 314 314 313 314 314 313 313 313 313 313 312 312 311 311 310 309
315 314 314 314 314 314 315 314 315 318 321 322 322 322 322 321 321 322 322 323 325 327 328 328 328 328 326 324 326 327 329 330 332 331 330 329 327 325 324 323 321 321 320 319 320 320 320 320 319 319 318 317 317 316 316 315 315 315 314 314 314 314 314 314 313 313 314 314 314 313 313 313 313 313 313 313 313 312 312 312 312 311 311 310 309 307
316 315 314 315 315 314 314 314 316 318 321 322 321 321 322 321 320 321 323 324 325 325 326 327 328 327 326 326 327 327 329 331 332 330 329 327 326 325 324 322 321 321 320 320 320 320 320 320 319 318 318 317 317 316 315 315 314 314 314 314 313 313 313 313 313 313 314 314 313 313 312 312 312 312 312 312 312 312 312 311 311 311 310 309 308 306
317 315 315 317 318 317 316 316 318 319 322 323 321 321 322 322 321 322 324 324 324 322 322 324 327 327 326 327 328 329 329 329 330 329 328 326 325 324 323 323 322 321 320 320 320 320 320 319 319 318 317 317 316 316 315 314 314 314 314 313 312 312 313 312 312 312 313 313 312 312 312 312 312 312 312 312 312 311 311 311 310 310 309 308 307 306
318 317 317 318 319 319 318 318 319 320 322 322 322 321 321 321 322 323 323 323 323 322 321 322 324 325 326 327 328 327 326 325 326 328 328 326 325 325 324 323 321 321 321 321 320 320 320 319 318 317 317 316 316 315 314 313 313 313 312 312 312 312 313 312 312 312 312 312 312 312 312 312 312 312 312 311 311 311 310 310 310 309 308 308 307 306
318 318 317 318 319 319 319 319 320 320 321 321 320 321 321 321 321 322 322 322 322 322 323 323 323 324 324 326 327 327 325 323 324 327 327 326 325 324 323 322 321 321 321 321 320 320 319 318 318 317 316 316 315 314 313 313 312 312 311 311 311 312 312 312 311 311 311 312 312 312 312 312 311 311 311 311 310 310 310 310 309 309 308 307 307 306
318 318 318 318 319 319 318 319 320 320 320 320 319 320 320 320 320 321 321 321 321 322 323 324 323 322 322 324 326 327 326 324 325 326 326 326 325 323 322 322 321 321 321 321 320 319 318 318 317 316 315 314 314 313 313 312 311 310 310 310 311 312 311 311 311 311 312 312 312 312 311 311 311 311 310 310 310 310 309 309 309 308 308 307 306 305
318 318 318 318 319 319 318 319 320 320 320 320 319 320 320 319 320 320 320 320 321 321 323 324 323 323 323 324 325 326 326 326 326 326 326 325 324 323 322 321 321 321 320 320 319 319 318 317 316 315 314 314 313 312 311 311 310 309 309 310 310 310 311 311 311 311 311 311 311 311 311 310 310 310 310 310 310 309 309 309 308 307 307 306 306 305
317 317 317 316 318 319 318 318 319 319 319 319 319 319 319 319 319 319 319 320 320 321 322 323 323 324 324 324 324 325 325 326 325 325 326 325 323 322 321 321 321 321 320 320 319 318 317 316 316 315 314 313 312 311 310 310 309 309 310 310 310 310 311 311 311 311 311 311 311 310 310 310 310 309 309 309 309 309 308 308 307 307 306 305 305 304
318 318 317 316 317 318 318 317 318 318 318 318 318 318 318 319 319 319 319 320 320 321 321 322 322 323 324 324 324 324 325 325 324 324 325 324 323 322 321 321 321 321 320 319 318 317 316 316 315 314 313 312 311 310 310 309 309 309 310 310 310 311 311 311 311 311 310 310 310 310 309 309 309 309 309 309 308 308 307 307 306 305 305 305 304 303
317 318 317 317 317 317 317 318 318 318 318 318 317 317 317 318 318 319 319 319 319 320 321 321 321 322 323 324 323 323 324 324 323 324 324 323 322 321 321 321 320 320 320 319 318 317 316 315 315 313 312 311 311 310 309 309 309 309 309 310 310 310 310 310 310 310 310 310 310 309 309 309 309 308 308 308 307 307 307 306 305 305 304 304 303 303
Wind_Speed
17 11 13 15 15 17 19 19 19 18 16 16 15 14 14 13 13 15 16 14 17 14 15 17 17 16 19 23 22 14 22 19 14 20 19 21 24 24 25 25 23 25 29 28 27 32 32 30 33 33 33 34 32 32 28 25 26 23 22 23 23 22 20 20 21 18 19 22 18 14 12 12 12 12 12 11 11 10 9 9 9 9 7 6 4 4
17 13 16 18 18 19 20 21 20 19 19 18 14 12 13 13 12 15 18 16 18 13 12 17 18 17 19 21 20 15 18 14 15 19 18 21 22 24 27 24 21 24 29 26 20 27 27 20 26 28 25 31 34 31 27 25 25 22 22 24 23 22 21 20 19 17 17 17 15 14 13 12 11 10 10 10 11 11 10 9 8 7 5 3 2 3
15 14 17 19 18 19 19 21 21 19 19 18 13 11 11 10 11 15 18 19 16 10 9 15 16 16 17 19 20 15 14 14 20 21 20 23 20 18 20 18 20 20 19 15 5 12 19 12 19 22 16 25 29 26 26 25 25 24 24 24 22 21 20 18 17 16 15 14 13 13 12 12 11 10 11 11 11 10 9 8 6 5 5 3 1 1
12 14 17 19 18 20 20 20 21 17 15 15 13 11 11 10 11 11 12 15 11 9 9 13 12 12 14 17 17 16 15 15 22 24 22 25 21 18 21 18 14 8 7 9 4 6 13 10 17 22 17 21 23 22 24 23 24 25 24 23 22 20 19 17 16 16 16 15 14 13 12 12 11 11 11 11 11 9 8 7 6 4 4 3 2 2
13 13 18 20 20 22 21 19 20 15 11 14 16 14 12 12 15 12 11 13 11 10 10 12 9 9 12 15 14 15 16 16 23 23 18 20 21 20 23 15 13 16 9 7 5 5 12 12 16 19 19 22 23 23 24 24 25 24 23 24 22 21 19 17 17 17 18 17 16 15 14 13 13 13 11 11 11 9 8 7 5 5 4 4 5 5
15 16 19 22 21 23 22 18 20 16 10 13 17 19 17 15 16 15 15 15 10 7 9 10 9 7 11 16 15 13 14 14 21 21 17 17 18 20 21 17 24 23 19 15 9 8 14 17 14 13 20 26 23 23 24 24 24 23 22 23 21 21 20 19 18 18 18 18 17 16 15 16 15 14 12 13 11 8 7 7 6 6 5 5 5 6
12 18 20 21 22 23 21 17 19 18 11 10 14 19 20 18 16 16 17 14 9 7 9 11 10 7 9 15 16 15 15 16 17 18 15 16 16 16 17 23 27 25 22 22 19 16 20 17 9 14 27 27 21 23 25 22 20 19 20 20 20 19 19 19 19 19 19 18 17 15 14 15 13 12 11 12 11 9 9 9 7 6 6 4 4 5
14 20 20 21 22 20 18 15 17 20 13 9 13 17 20 21 19 17 17 13 8 8 9 14 14 9 7 11 15 16 17 18 16 15 12 11 14 13 19 24 22 19 18 20 22 22 23 17 14 24 30 25 22 23 22 19 17 17 20 20 20 18 18 19 19 20 19 18 18 16 15 15 12 11 12 13 13 12 10 9 7 6 5 4 4 5
15 20 19 21 20 15 15 15 17 20 14 10 13 16 18 20 17 14 12 11 10 8 8 13 15 9 8 8 12 16 18 18 17 18 15 12 15 13 18 20 17 15 15 18 20 22 25 23 25 32 30 25 25 21 16 18 21 22 22 21 20 19 19 20 20 21 20 19 18 17 16 16 14 13 14 14 14 12 10 7 6 5 4 4 5 6
14 20 20 19 16 13 16 17 20 21 14 12 15 13 15 16 15 12 9 9 10 8 8 12 14 10 9 9 10 13 15 15 14 15 18 18 19 17 18 19 18 16 21 23 21 25 31 31 32 33 30 24 23 19 18 22 23 23 23 22 22 22 21 20 20 21 21 19 18 15 14 15 14 14 13 13 13 11 9 7 6 5 5 5 6 6
14 20 20 16 15 14 16 18 19 20 15 14 15 13 13 14 13 11 8 9 7 7 11 16 16 13 9 9 10 10 11 13 12 10 16 22 26 27 27 27 25 24 28 29 26 31 37 36 33 32 30 25 23 23 25 25 23 23 23 24 24 23 22 20 20 22 21 19 18 15 13 14 13 13 11 11 11 10 8 8 7 7 6 6 6 6
16 18 15 14 18 18 17 17 18 19 17 14 13 11 11 10 9 9 8 8 7 8 13 18 20 16 10 8 9 11 13 15 13 9 14 21 27 33 34 34 34 32 32 33 33 36 38 36 34 32 31 29 27 28 30 28 27 26 25 25 25 23 22 21 22 22 21 20 18 15 14 14 12 12 12 11 11 10 9 8 7 7 7 6 6 7
15 15 13 15 22 22 18 16 15 16 16 14 11 10 10 9 7 8 8 8 8 9 11 16 19 15 10 9 12 14 15 14 13 12 18 21 24 31 32 34 38 37 36 38 38 39 40 38 36 35 34 33 33 35 36 33 30 29 28 27 25 24 24 23 24 23 21 20 19 17 16 15 12 11 12 12 13 12 11 9 8 8 8 8 8 9
11 13 17 18 19 21 18 14 12 12 13 14 12 11 10 9 8 8 9 8 9 10 11 15 15 11 9 10 13 14 14 11 12 17 24 29 31 31 31 36 41 40 40 42 41 40 40 38 37 37 38 38 39 39 38 34 32 31 30 28 26 26 26 26 25 24 22 21 19 18 17 15 13 12 11 12 12 11 11 11 11 10 10 11 11 11
11 10 16 17 12 14 16 13 12 13 13 13 12 11 9 9 8 8 8 8 8 8 10 13 11 9 9 5 8 12 14 14 10 19 23 31 39 37 33 36 39 39 40 43 43 41 40 38 36 35 35 36 37 37 36 35 33 32 31 29 28 28 28 27 25 24 23 21 20 18 16 16 15 12 10 10 11 12 12 12 12 12 13 13 13 13
13 11 14 16 13 16 17 16 15 15 13 11 12 11 9 10 9 5 7 7 6 5 7 9 7 6 6 5 6 9 12 15 10 14 16 27 39 37 33 33 33 32 33 36 40 40 37 35 35 33 33 34 35 36 36 36 34 33 32 30 29 29 28 27 25 24 22 20 19 19 17 17 16 14 11 10 11 12 12 11 12 12 13 13 13 11
12 10 14 17 15 19 20 19 18 16 10 8 11 12 10 12 10 5 6 7 5 5 5 7 8 7 6 7 11 11 12 14 7 8 12 26 35 30 28 29 29 28 27 28 35 37 32 31 35 36 36 35 35 36 35 33 33 34 33 30 30 29 28 27 26 24 22 20 19 19 18 18 18 16 14 12 11 10 10 11 11 9 10 11 9 7
9 8 14 19 17 19 21 21 21 18 12 8 10 12 11 11 11 7 6 6 6 7 6 8 11 11 7 6 11 14 13 13 9 17 18 24 28 25 24 26 27 27 26 25 29 32 31 30 32 35 36 36 35 35 33 29 28 31 31 29 29 28 28 27 26 23 22 20 19 19 19 19 19 17 15 12 9 8 8 8 8 7 7 7 4 4
10 7 12 19 18 17 19 18 16 17 17 12 10 11 11 10 10 8 6 6 8 7 5 9 13 11 9 7 8 11 9 9 12 21 20 19 20 21 23 25 27 28 28 27 28 30 31 29 29 32 34 35 34 32 28 25 26 29 29 28 28 28 28 27 25 23 21 20 19 19 18 17 16 14 12 10 9 8 6 5 6 7 6 4 3 3
8 6 7 15 19 16 14 12 11 13 15 15 13 12 10 8 9 9 6 5 7 7 6 9 10 8 8 9 8 11 10 9 9 18 18 19 20 22 24 24 27 32 33 31 30 32 32 30 29 30 31 33 33 29 25 25 28 28 27 28 29 28 27 26 24 23 22 21 20 19 17 15 13 11 10 10 9 8 9 8 6 5 4 4 4 3
8 6 4 11 17 14 10 11 12 13 13 14 13 12 11 8 8 9 8 7 8 7 6 7 7 6 6 8 9 11 14 10 7 11 12 18 23 25 27 27 28 34 36 33 32 33 33 31 29 28 28 29 29 27 25 25 28 29 27 29 29 27 27 25 23 23 22 21 20 19 17 14 12 11 10 9 9 9 10 8 6 5 4 5 5 3
6 5 3 8 13 12 11 13 16 17 16 13 10 10 12 11 10 9 9 9 9 7 7 6 6 6 4 5 8 10 13 12 12 10 8 16 27 29 29 30 33 36 36 33 32 33 33 32 31 27 26 29 29 28 27 25 27 30 29 27 27 27 26 25 24 23 22 21 20 19 17 14 12 10 9 10 11 12 10 9 9 7 6 5 4 2
4 3 5 7 10 12 14 17 18 18 17 14 12 12 13 12 11 9 8 9 9 8 7 7 7 4 1 2 4 6 7 10 12 13 11 16 28 33 32 31 34 37 36 33 32 32 32 32 31 28 27 31 31 30 30 27 27 31 29 26 27 28 27 26 25 23 22 21 20 19 16 13 11 9 8 10 12 12 11 10 9 7 5 4 3 3
4 3 7 8 8 11 14 16 16 18 16 14 14 13 12 13 12 10 7 6 6 7 7 6 6 3 3 5 4 3 6 8 6 1 10 15 25 33 34 31 32 35 35 32 32 33 33 31 30 29 29 31 30 29 30 29 28 30 28 27 29 29 28 26 24 20 19 18 18 16 15 12 9 7 8 11 12 11 9 8 7 6 5 4 4 4
4 5 8 8 9 10 11 12 14 16 14 11 12 13 15 16 16 12 9 5 4 8 10 8 4 2 2 4 1 6 13 15 16 14 5 15 28 33 33 32 33 34 32 33 35 34 33 31 31 31 31 30 30 30 30 30 29 29 28 29 30 29 27 24 20 17 16 15 15 13 12 10 8 7 9 11 12 11 9 8 7 6 5 5 6 6
6 7 9 8 9 10 11 11 11 12 12 10 13 17 18 19 18 14 8 5 5 8 12 9 2 3 3 3 2 7 14 13 11 14 15 19 28 30 29 30 32 31 30 34 36 33 32 32 33 33 32 31 31 30 30 31 30 27 27 27 27 26 24 21 18 16 15 14 13 11 10 8 8 8 10 11 11 9 8 8 7 6 6 7 7 8
5 7 10 11 10 10 10 11 12 12 12 12 16 20 19 18 17 12 7 7 7 6 9 8 3 5 4 2 4 7 12 12 9 9 12 11 18 24 25 26 29 28 29 33 34 32 31 32 33 33 33 32 31 30 31 32 29 26 25 24 23 22 21 20 19 17 15 14 13 11 10 9 9 11 13 12 10 9 8 7 7 7 8 9 9 10
4 6 12 13 12 12 12 13 16 16 16 16 17 18 19 19 16 10 6 9 8 6 8 8 6 8 5 4 4 7 13 12 8 7 7 6 6 15 20 21 25 27 28 30 31 31 32 32 32 34 33 32 31 30 30 30 28 26 26 24 24 23 22 21 19 17 15 14 13 12 10 10 12 15 14 11 10 9 8 8 8 9 10 10 11 12
3 6 11 12 12 11 13 14 16 17 16 16 15 16 18 19 16 12 10 11 10 7 7 6 7 8 6 6 6 10 14 12 10 12 12 7 7 10 14 16 20 24 28 29 30 32 33 32 32 32 31 30 30 31 31 31 30 28 28 28 27 24 22 21 19 16 15 15 14 11 10 13 16 15 13 11 11 10 9 10 11 11 11 11 12 13
4 6 9 12 11 10 11 13 14 16 16 16 18 18 18 17 16 16 14 13 13 11 8 6 5 6 6 5 8 13 15 16 15 16 16 16 15 15 14 15 18 22 26 28 29 30 31 32 33 32 31 32 34 35 34 33 33 31 30 29 27 23 21 20 18 15 16 15 13 12 14 16 16 14 13 12 10 10 11 12 12 12 11 12 13 14
6 4 6 9 9 8 8 5 7 11 13 16 18 18 16 14 15 17 15 12 12 11 10 10 8 2 2 3 10 13 15 16 15 16 17 17 18 19 17 18 20 21 22 23 25 27 28 31 32 32 33 35 37 38 37 36 35 33 29 27 25 23 20 17 15 15 15 14 14 16 17 17 15 13 13 12 11 11 12 12 13 11 11 12 14 14
5 3 5 7 6 8 7 4 5 6 6 10 15 16 16 15 13 13 13 11 12 10 9 10 9 3 5 5 8 10 12 13 12 14 16 16 17 19 18 20 21 20 20 22 24 26 28 30 32 33 36 38 39 39 38 38 36 33 30 29 26 21 16 15 14 13 13 15 17 18 18 16 15 14 13 12 12 12 13 13 12 11 11 13 14 13
6 4 5 6 6 7 7 3 4 3 5 7 9 11 14 16 14 12 12 13 12 8 6 7 6 7 9 7 9 9 9 11 10 12 15 15 17 18 18 19 20 19 22 25 26 29 31 31 33 36 37 38 39 40 39 37 33 29 27 24 20 16 16 16 14 13 14 17 19 19 18 16 15 14 13 13 13 14 14 13 12 11 12 14 13 12
8 6 5 5 6 5 6 5 1 4 6 4 4 7 7 11 16 14 11 11 10 7 7 7 4 11 11 7 7 5 4 7 8 10 13 15 18 18 18 20 20 22 26 28 29 32 33 33 34 36 37 38 39 40 37 32 27 22 20 18 17 17 17 14 13 14 16 19 19 19 19 17 15 15 14 14 14 15 14 13 12 12 12 12 11 11
6 5 4 4 5 3 7 7 2 6 4 3 7 10 13 10 12 14 11 11 12 11 11 9 7 12 11 8 9 6 2 4 7 6 9 14 19 19 20 24 26 27 31 32 32 35 35 36 36 36 36 36 35 34 30 26 22 20 20 20 20 18 15 13 14 16 18 19 18 18 18 17 16 16 15 15 16 16 15 14 13 12 12 11 11 10
6 4 3 3 4 3 5 4 3 3 0 5 6 6 9 11 8 10 11 12 12 10 10 11 8 10 11 12 16 15 9 7 7 6 8 15 20 20 23 28 30 31 33 35 36 37 37 37 38 38 36 34 31 30 27 24 22 21 21 21 19 16 16 18 19 20 20 19 16 16 16 17 18 18 16 16 17 17 16 15 14 12 11 11 10 9
5 4 4 4 4 4 4 4 3 2 2 2 2 2 4 6 6 6 5 7 10 8 9 11 9 10 11 10 14 18 13 8 5 5 10 16 19 21 24 29 31 32 34 35 35 35 36 36 37 37 33 29 27 27 27 24 21 20 20 20 18 17 18 19 20 21 22 19 16 14 15 17 19 19 18 17 17 17 16 15 13 12 11 10 9 8
7 5 4 4 4 4 3 4 4 3 3 3 2 1 2 5 5 5 3 3 7 8 9 12 10 12 12 8 11 17 14 8 4 5 11 17 20 23 27 30 31 33 34 35 35 36 36 36 35 32 29 26 25 25 24 21 20 19 19 19 19 19 18 18 19 20 20 18 15 15 16 17 19 19 18 18 18 17 16 14 13 12 10 9 9 8
9 7 4 3 4 4 4 4 4 3 1 2 3 2 3 5 5 2 4 5 3 4 7 11 10 11 12 9 10 14 11 6 5 8 15 20 24 28 31 31 31 33 35 35 37 38 37 35 32 29 27 27 26 24 21 20 19 19 18 18 19 19 19 19 19 20 19 17 16 17 18 19 19 19 19 19 19 18 16 15 14 13 11 10 10 10
7 6 5 5 5 4 5 4 2 1 1 4 4 5 5 6 6 1 6 4 3 9 9 6 4 3 14 16 12 10 7 3 5 14 20 25 29 31 30 28 29 34 38 37 37 36 34 32 29 27 25 25 24 23 21 20 20 20 19 19 20 20 21 21 20 20 21 18 17 18 20 21 20 19 19 19 18 17 16 15 15 14 12 12 12 11
6 6 5 7 6 4 5 5 2 2 2 4 3 4 6 5 3 4 4 1 7 11 11 10 13 13 15 14 9 5 1 3 13 25 28 30 33 32 29 27 29 35 39 38 34 31 29 28 27 26 25 24 24 24 22 21 21 21 21 21 21 21 21 20 20 21 21 20 20 20 20 20 19 19 19 19 19 18 17 16 15 14 13 12 11 11
6 6 5 6 6 4 5 5 3 3 3 4 3 4 6 3 3 2 2 5 6 11 11 9 15 20 16 10 7 3 7 12 23 31 30 33 34 32 30 30 31 34 35 33 30 28 28 28 27 25 25 24 24 23 22 21 22 22 23 23 22 21 21 20 21 22 22 21 21 20 20 20 19 19 19 19 19 19 18 17 15 14 12 10 10 12
3 4 5 4 4 4 5 5 3 2 1 2 1 3 4 2 3 2 6 6 10 13 11 7 9 11 11 10 6 7 12 18 25 29 32 34 34 31 32 32 32 33 33 32 30 29 29 29 27 25 25 24 23 22 22 21 22 23 24 24 23 22 21 21 21 24 24 21 19 19 20 21 20 20 20 19 18 19 18 16 14 13 12 12 12 14
1 3 4 2 2 2 3 2 1 2 2 2 2 3 5 5 5 1 4 6 12 13 11 9 9 7 5 8 9 12 15 18 21 27 32 33 33 33 33 32 33 34 33 31 30 30 29 28 27 25 25 24 23 22 20 21 24 26 25 24 23 22 21 21 22 24 24 21 19 19 20 20 20 21 20 18 18 18 16 15 14 14 13 13 13 14
2 2 1 3 4 3 2 1 1 4 7 7 6 7 8 7 7 7 7 7 10 12 10 9 8 6 4 8 12 16 18 17 19 24 29 31 33 34 33 33 35 34 31 30 30 29 28 27 26 26 25 23 21 21 19 21 24 25 24 23 24 23 22 22 22 23 22 20 20 21 20 19 20 20 19 18 17 16 15 14 14 13 12 12 12 12
4 2 2 4 4 5 5 4 3 5 8 8 6 6 7 6 6 8 8 8 10 10 7 6 5 1 3 7 11 16 20 22 21 22 26 31 34 32 32 36 36 32 31 31 31 29 28 27 26 26 24 22 20 19 19 20 22 23 23 25 26 25 24 22 22 22 22 21 22 21 19 19 20 19 18 17 16 15 14 14 13 13 12 11 11 11
5 4 1 3 2 3 3 4 4 4 6 7 6 5 6 5 5 6 6 7 8 8 6 6 4 4 6 5 9 15 22 25 23 22 26 30 32 32 33 36 35 32 31 32 31 30 29 28 27 26 24 22 21 19 18 19 20 21 24 26 27 25 24 23 23 24 24 23 22 21 19 20 21 19 18 17 17 15 14 14 14 15 14 14 13 12
5 6 5 5 4 2 3 4 4 5 7 8 8 8 7 7 7 7 5 4 5 7 8 7 4 4 5 6 9 15 20 23 23 24 24 25 29 33 34 34 34 32 31 31 31 31 30 28 27 25 24 23 21 19 18 18 19 20 22 23 23 23 23 24 24 24 24 22 21 21 20 21 21 21 20 20 20 18 17 16 17 16 16 17 16 14
5 7 3 2 2 3 3 6 6 4 7 8 10 10 9 8 8 7 5 4 4 6 8 6 5 4 6 9 10 12 16 19 20 22 24 24 28 33 34 33 33 32 31 31 32 31 31 29 27 25 24 22 21 20 19 19 20 20 21 21 21 23 24 25 24 23 22 22 21 22 22 21 21 21 21 21 21 20 19 17 17 16 17 18 17 16
5 5 2 4 2 3 2 2 4 1 4 6 9 9 8 6 6 6 6 7 7 6 7 6 4 5 7 9 8 9 14 18 18 20 24 26 28 31 33 32 32 32 31 31 31 31 30 28 27 26 24 22 21 20 20 20 20 20 19 19 22 24 26 27 25 23 22 21 22 23 22 20 20 20 20 20 20 20 19 18 17 16 17 17 16 15
6 5 4 3 3 5 5 2 1 3 6 7 8 7 6 6 5 5 6 8 7 6 6 5 4 4 5 7 7 8 14 18 18 20 23 25 28 31 32 31 32 33 32 30 31 32 30 28 27 25 23 22 22 21 20 21 21 20 20 21 24 27 27 27 25 23 22 22 23 23 21 19 19 20 21 20 20 19 18 17 18 17 17 17 16 16
Wind_Direction
200 206 210 213 212 207 210 216 218 221 225 225 219 221 218 224 236 229 237 219 181 189 210 220 227 221 228 245 255 220 181 183 156 142 149 156 167 181 194 205 208 205 200 199 199 193 186 185 186 180 175 172 168 169 166 161 164 164 165 162 158 160 161 163 170 174 173 179 185 185 188 188 185 179 174 179 177 180 192 192 200 205 215 232 212 200
202 215 215 211 211 210 209 214 219 219 227 237 233 232 224 221 234 226 232 225 186 187 214 216 227 225 223 245 254 216 185 183 157 146 152 164 177 182 188 204 210 206 203 201 203 193 183 177 178 175 174 170 162 163 165 161 161 161 165 165 162 166 172 173 171 173 180 186 187 187 188 185 186 186 189 191 181 182 189 192 202 202 208 224 160 177
206 221 216 208 211 214 213 212 218 218 222 238 242 244 240 216 228 233 231 228 195 174 219 217 220 229 224 237 252 233 196 166 151 154 152 157 173 180 182 197 207 211 210 195 162 176 179 168 176 179 171 160 153 157 163 159 160 165 167 166 163 167 173 170 166 172 179 178 180 185 184 183 184 190 204 203 188 185 185 186 193 176 178 198 129 168
207 217 212 209 209 211 217 212 212 219 218 232 237 239 249 221 218 233 222 226 205 166 220 228 216 226 228 229 245 241 211 170 160 164 156 162 173 171 177 190 190 189 208 196 86 122 183 179 177 183 170 153 153 162 164 160 167 170 167 166 167 172 174 171 168 170 173 173 176 177 176 183 182 183 203 207 191 184 178 176 177 163 169 178 172 219
212 208 203 208 209 206 214 212 206 215 216 225 234 234 244 234 226 225 204 215 213 182 211 239 232 220 225 228 232 235 220 185 170 163 143 160 174 175 181 167 97 79 89 171 186 195 191 165 163 177 166 155 160 165 164 167 172 170 166 169 172 174 175 174 172 171 172 175 178 177 178 182 181 176 191 204 192 179 175 171 171 176 181 185 201 220
216 203 198 204 209 205 209 211 205 208 214 220 229 232 238 243 238 229 214 210 204 192 206 225 244 227 216 228 227 225 224 196 171 157 135 143 166 183 178 127 89 88 87 97 131 186 181 160 156 166 157 158 165 163 165 171 170 167 168 172 175 173 174 175 174 174 174 175 179 182 183 184 184 177 182 194 185 168 169 168 174 187 194 207 216 225
219 206 199 201 207 204 206 213 205 202 212 220 219 224 234 245 241 225 222 220 198 197 209 210 236 246 214 222 224 221 225 211 172 147 141 146 166 183 153 115 106 106 99 100 117 149 167 164 152 157 159 160 163 164 168 167 162 169 174 178 181 175 175 178 177 177 175 174 176 179 185 189 187 175 172 182 176 169 180 180 188 199 200 218 243 250
213 210 201 199 205 204 206 211 203 201 210 219 211 211 225 241 244 227 222 230 212 197 218 216 220 242 235 216 214 216 226 222 186 149 139 153 180 170 119 118 135 135 126 123 126 142 162 161 136 149 159 158 161 167 169 165 166 179 180 179 180 175 177 181 181 181 174 171 173 176 186 189 180 168 171 183 179 177 188 190 194 206 208 228 266 269
204 212 202 195 204 206 205 206 204 207 210 219 214 203 217 238 252 247 234 240 229 206 227 223 209 226 249 222 207 211 221 228 200 161 148 164 183 159 116 125 150 164 170 158 149 157 168 161 143 150 158 161 169 172 168 174 178 178 177 176 178 179 179 180 183 181 173 172 174 179 188 188 180 173 175 184 181 177 184 186 185 199 221 244 259 264
198 213 209 196 202 209 205 202 207 211 207 216 221 203 207 229 244 250 251 255 239 216 234 230 204 206 240 230 214 212 214 224 210 167 157 165 161 143 132 136 137 157 181 179 176 180 176 165 154 156 161 166 174 175 177 185 183 176 175 177 181 183 180 181 184 178 172 174 177 183 190 188 184 179 174 177 177 173 172 172 176 190 221 246 253 257
200 206 215 207 200 207 207 203 209 210 199 207 224 213 200 212 229 239 251 264 250 217 231 236 218 204 223 232 218 221 218 208 206 184 162 156 147 143 150 159 159 166 177 178 177 179 175 167 162 166 169 167 170 176 186 192 190 184 180 180 183 182 180 182 182 175 173 177 180 184 185 183 180 178 184 183 171 164 165 172 185 198 218 239 252 260
209 196 212 215 201 204 209 204 205 204 197 203 218 218 203 197 216 230 230 241 247 226 219 230 234 219 210 226 223 237 236 202 191 189 155 141 142 149 156 165 169 170 173 176 173 172 171 167 168 175 175 169 170 182 191 193 193 188 183 183 182 180 182 182 178 176 175 178 181 179 178 183 178 180 198 191 168 166 172 176 191 209 224 230 241 252
219 195 196 214 207 205 208 201 197 196 195 202 207 213 211 192 197 217 212 213 232 239 220 223 236 232 216 223 223 239 245 212 188 173 153 143 142 148 153 160 165 168 173 174 170 169 171 171 173 179 178 174 179 188 189 189 189 186 183 185 182 180 183 180 177 177 176 179 181 176 177 178 175 189 205 190 173 174 173 178 196 216 226 217 220 234
215 196 193 211 210 202 207 200 188 191 193 197 201 207 212 199 192 204 208 210 221 234 235 230 234 240 236 221 209 226 253 239 188 165 161 156 150 150 156 161 163 169 173 170 168 168 171 174 177 180 179 176 180 183 182 183 184 183 184 184 182 182 180 176 176 176 176 178 178 177 181 179 180 195 200 181 175 182 184 194 211 224 228 218 215 228
202 199 191 203 196 187 208 210 191 195 196 195 204 212 214 208 199 199 204 211 217 222 232 235 233 232 232 215 196 213 246 258 194 162 163 152 149 152 156 160 164 169 171 169 170 172 174 178 181 181 178 175 177 178 177 180 182 184 184 182 181 180 175 173 174 174 177 178 175 175 180 182 186 194 195 184 185 201 210 214 225 230 227 221 217 227
203 206 184 185 176 177 206 223 210 203 198 193 205 213 214 212 203 195 214 225 232 228 223 230 239 239 237 264 257 223 235 251 214 174 167 140 141 148 150 156 163 165 167 168 172 174 174 178 180 180 177 176 179 178 177 180 183 185 183 179 177 176 172 170 169 170 173 174 171 171 174 178 181 186 202 209 206 216 226 223 226 228 225 224 220 223
205 197 177 183 186 187 200 217 219 213 194 184 206 211 208 216 215 196 211 231 248 245 221 217 228 234 232 247 248 231 226 233 197 122 129 132 137 143 146 153 159 162 162 164 172 174 170 173 178 178 178 179 183 182 180 181 183 185 181 176 174 174 171 167 166 167 169 169 168 167 170 172 173 183 201 217 220 225 228 219 216 219 222 225 217 216
207 183 172 186 198 199 199 212 226 223 203 187 205 205 194 210 228 221 206 207 223 238 230 216 221 223 217 223 224 214 219 219 149 99 107 134 143 143 146 153 156 159 159 158 168 170 167 171 175 176 179 183 185 183 181 181 182 183 179 175 174 173 170 168 167 168 169 171 168 165 170 172 176 186 198 212 223 224 221 216 211 208 215 216 199 212
213 193 165 181 197 199 196 212 228 216 205 208 209 198 191 202 219 223 217 200 205 222 229 222 224 221 213 220 209 192 217 232 152 123 123 140 145 143 146 150 151 152 153 155 163 165 167 172 173 176 181 184 184 182 182 184 182 181 179 176 174 171 169 168 168 170 170 172 172 172 176 178 181 188 196 208 213 208 203 204 207 204 205 199 187 214
214 223 162 180 197 195 187 206 217 195 198 218 217 196 195 211 217 218 218 210 209 211 214 221 227 222 208 219 207 177 206 237 154 134 139 144 147 149 149 148 148 152 154 156 160 165 169 171 171 176 181 182 181 181 183 183 179 178 177 174 171 169 167 166 167 170 170 172 176 177 177 179 181 184 194 203 201 199 196 191 196 193 188 193 193 209
200 225 176 181 194 190 187 203 203 189 194 212 210 192 196 212 220 219 212 209 217 215 207 215 229 227 201 216 227 193 194 208 156 145 155 148 149 153 153 151 153 159 163 162 161 165 168 168 169 174 179 178 177 178 180 179 177 177 173 171 170 167 166 168 170 172 173 175 178 179 181 184 185 187 194 192 188 202 201 182 172 172 191 209 197 197
190 203 174 178 185 183 194 203 201 200 201 204 203 194 199 210 214 214 209 208 217 215 208 213 227 234 196 192 236 219 196 190 175 174 172 154 154 154 154 158 162 168 170 167 165 165 166 168 169 171 174 174 174 177 178 177 177 175 170 171 173 169 169 172 173 174 176 176 178 184 189 188 189 196 203 194 190 201 200 180 172 173 188 207 185 168
181 178 165 175 186 186 192 199 205 209 201 198 210 207 199 207 216 215 204 206 219 213 209 220 223 230 26 49 273 252 198 180 178 189 196 169 156 154 155 159 165 170 171 168 167 166 165 169 171 170 172 174 174 175 176 175 174 171 170 173 174 171 171 173 173 174 176 178 183 191 192 189 191 201 208 199 192 192 189 177 169 167 174 179 160 144
139 159 172 175 191 197 194 194 206 217 210 199 210 216 210 208 212 224 224 209 224 223 211 225 222 205 21 6 340 25 78 78 63 232 214 174 145 145 151 154 159 166 168 165 164 164 166 169 170 169 170 172 173 174 176 174 169 169 171 171 171 172 170 170 170 169 172 179 184 185 185 185 191 205 210 200 186 176 172 162 151 155 164 154 137 127
150 175 176 178 182 187 191 189 198 214 221 213 205 214 229 220 203 215 240 221 213 229 223 225 219 164 36 356 358 87 74 59 40 29 56 130 129 135 146 151 154 159 162 161 160 163 166 167 168 168 168 171 172 172 172 169 165 166 167 165 167 169 167 165 164 165 169 174 173 171 172 175 190 208 204 188 171 161 158 154 151 154 151 138 130 124
184 185 170 185 187 182 192 193 191 202 211 212 201 204 224 231 212 204 220 216 205 226 232 233 201 115 58 16 178 120 84 72 61 47 57 100 124 134 144 151 154 156 159 158 158 162 165 166 168 168 168 170 170 167 166 165 163 163 163 165 166 165 164 165 165 166 167 167 166 166 166 174 194 193 176 161 151 148 148 148 147 144 137 130 127 121
189 196 187 202 197 187 201 196 183 192 206 207 201 201 214 232 229 210 193 208 208 213 241 243 176 140 134 127 173 135 101 92 84 57 47 79 122 133 140 149 154 158 162 159 157 161 163 165 168 168 167 167 164 162 162 161 161 162 164 167 168 167 164 164 165 164 163 166 174 179 181 190 187 165 152 146 142 142 142 143 141 138 134 127 121 119
188 199 204 220 212 194 200 196 182 188 206 208 201 205 210 216 227 229 208 210 204 197 235 233 162 136 142 172 172 117 107 106 100 89 66 51 116 131 134 147 154 157 161 158 158 164 165 166 167 165 163 162 160 159 159 160 162 165 164 164 167 167 160 157 160 160 161 174 188 194 194 185 166 152 144 141 142 143 142 142 139 134 130 125 121 121
188 204 207 226 230 208 195 196 188 185 200 211 210 218 216 207 215 233 227 216 213 214 230 218 164 156 173 197 174 122 116 121 125 131 132 144 172 144 132 147 157 160 161 161 163 168 168 167 165 162 162 164 162 159 158 162 166 166 164 161 161 159 155 157 161 163 173 187 194 191 177 162 152 144 138 138 141 141 137 134 131 126 121 121 121 120
199 213 207 214 227 227 211 206 195 184 191 203 210 220 216 202 209 226 229 224 223 227 232 229 204 191 195 185 136 119 125 131 132 139 150 167 171 150 139 153 164 168 167 165 166 169 170 171 167 163 165 167 164 159 160 164 165 162 159 156 155 154 155 165 176 185 192 193 183 166 154 148 143 136 136 141 141 136 133 130 126 120 118 121 121 117
197 205 213 212 217 223 228 243 215 196 197 202 207 217 217 209 213 218 223 231 229 226 230 237 236 226 39 97 118 124 133 137 141 151 161 173 166 151 154 166 172 178 173 164 164 164 167 172 169 163 162 161 159 159 160 159 157 154 149 148 151 152 156 172 189 191 185 171 156 149 145 140 135 132 136 138 134 132 131 127 120 117 122 126 122 117
198 221 217 208 220 214 205 250 255 233 247 234 216 212 213 220 225 214 210 224 232 223 219 234 234 171 76 85 124 141 143 143 155 161 163 177 172 158 163 171 175 182 174 160 155 152 155 163 166 161 157 156 155 154 152 150 148 146 144 144 145 147 160 180 182 172 164 153 146 144 140 134 132 133 135 134 131 130 126 121 120 122 127 125 120 119
191 237 232 190 209 213 183 205 264 258 283 264 229 215 214 218 223 220 210 211 223 226 213 235 229 140 126 138 144 149 155 156 166 165 164 176 174 163 162 168 174 175 164 155 148 145 148 153 156 155 152 151 151 148 147 148 146 143 145 147 149 160 179 179 162 149 149 148 145 141 136 134 136 137 136 133 131 128 126 127 130 133 130 122 119 120
188 216 246 184 194 196 130 90 55 206 219 255 323 326 290 233 218 220 220 210 210 212 209 223 181 128 134 148 134 135 168 155 148 159 169 172 172 166 156 154 161 157 149 147 145 144 147 149 149 151 150 149 149 149 150 152 150 149 154 160 168 178 181 170 152 150 147 143 143 141 137 140 140 135 132 130 128 126 126 127 124 119 115 112 113 116
183 207 240 188 194 171 100 89 180 209 215 339 347 341 335 302 233 217 225 226 213 202 205 214 174 136 138 136 125 132 183 139 134 156 172 167 167 164 146 139 146 146 141 143 143 141 145 148 148 148 147 147 149 151 153 156 158 161 161 163 167 173 175 168 162 163 155 144 141 141 141 143 137 130 130 128 125 123 120 118 114 110 109 107 107 113
172 186 216 201 187 148 119 137 195 195 275 344 338 333 333 320 266 219 220 226 220 210 206 213 189 142 133 130 135 146 156 150 152 163 159 155 158 157 145 141 147 148 145 146 145 142 144 147 149 148 147 147 148 151 154 156 161 164 162 163 166 165 164 161 158 160 156 143 136 139 141 138 130 128 130 129 127 128 127 126 125 124 122 118 119 127
185 185 204 211 187 164 180 195 179 161 204 260 308 288 284 288 265 244 237 222 221 216 203 211 199 144 130 123 127 135 139 142 155 158 146 146 150 152 150 150 153 153 150 149 150 151 151 153 154 151 147 145 147 151 153 153 158 162 160 158 157 152 150 151 151 154 151 140 137 143 140 132 129 132 134 132 131 130 130 129 126 123 123 123 127 131
200 211 223 217 192 181 202 211 202 206 207 181 171 192 291 298 276 265 283 255 227 221 221 225 200 142 131 135 130 132 137 144 162 166 146 139 144 151 151 149 152 154 154 153 153 153 154 156 157 155 152 152 156 160 160 157 157 157 152 148 147 146 147 148 147 146 143 140 143 142 134 129 132 137 138 135 131 128 126 125 120 116 115 114 111 105
199 212 227 224 206 200 212 218 209 218 314 48 70 51 19 356 348 313 231 228 237 277 270 248 216 157 138 140 139 144 153 162 174 168 149 138 142 148 146 143 148 154 155 155 152 152 154 156 155 153 152 154 156 158 158 156 154 150 145 143 144 144 145 144 143 141 139 142 144 138 133 135 138 141 140 136 132 132 131 128 122 118 114 108 104 101
203 216 216 210 211 208 219 228 176 139 20 55 46 349 355 25 26 48 196 198 359 357 351 338 321 149 147 148 150 159 176 208 166 155 148 143 143 143 141 140 145 152 154 153 152 152 152 152 149 145 143 144 146 147 147 147 148 146 143 142 141 142 144 146 145 142 140 141 141 137 137 139 140 142 142 135 131 130 128 125 122 123 124 123 122 126
198 213 214 213 216 201 209 223 147 101 17 57 83 332 355 42 98 164 172 250 339 352 11 40 49 70 120 155 180 176 59 59 134 143 145 147 146 142 140 142 147 152 154 153 150 148 144 144 144 142 142 143 144 144 145 146 147 145 143 143 143 143 145 146 143 140 140 141 141 139 139 139 138 136 133 129 128 128 127 127 130 133 138 140 140 137
192 197 201 220 234 218 210 227 177 116 6 5 69 48 31 55 168 181 322 324 350 7 15 55 81 89 114 163 203 149 87 103 130 139 144 148 148 144 143 144 146 149 149 147 145 143 143 145 145 144 144 144 143 146 148 149 148 146 145 146 146 144 144 144 141 138 138 142 144 143 139 137 133 130 128 129 132 132 131 135 140 142 142 140 133 124
167 197 197 199 238 234 216 228 215 145 14 309 146 67 41 83 178 254 306 347 35 32 15 28 68 90 126 153 156 133 133 134 135 139 144 147 147 146 146 147 148 147 146 145 146 146 147 147 146 145 146 145 146 151 152 149 148 149 150 150 147 144 145 145 141 138 140 146 149 143 137 134 132 130 129 131 133 132 134 139 142 140 137 133 125 118
102 241 210 133 13 275 222 225 237 127 87 44 82 79 76 108 124 70 326 17 46 40 21 13 15 26 94 119 111 118 135 139 135 138 143 146 146 147 148 149 150 149 147 147 148 148 147 146 146 145 145 147 151 153 153 153 153 154 156 153 146 142 144 143 140 141 146 150 148 140 134 132 131 131 132 133 134 136 138 138 135 133 133 128 121 116
348 341 86 70 53 56 97 110 126 123 107 85 80 91 98 108 98 63 37 40 57 56 37 14 8 16 71 111 113 117 131 142 140 139 143 147 149 149 150 151 152 150 149 148 149 149 148 147 146 144 144 148 153 151 152 159 161 159 158 152 143 140 143 144 143 145 147 145 140 137 134 131 131 133 134 135 137 136 132 128 127 127 125 121 120 120
346 350 91 88 102 106 104 110 112 109 108 104 99 95 93 91 78 67 60 50 56 65 55 27 29 64 156 135 118 120 136 151 154 146 144 150 153 151 150 152 152 150 150 151 150 150 149 147 146 146 144 145 149 150 152 160 164 161 155 146 142 144 149 149 146 142 139 136 135 136 135 132 132 133 132 131 131 129 126 127 130 132 130 129 130 132
317 284 16 55 104 130 109 105 114 116 109 104 97 86 82 80 64 59 64 50 50 68 74 59 81 175 192 157 123 126 137 145 150 146 144 150 155 154 152 153 153 152 152 153 152 151 150 147 146 147 145 142 146 152 155 157 160 158 149 144 147 153 153 147 140 136 136 136 137 138 137 134 132 133 135 135 134 133 139 149 152 149 147 145 143 142
315 331 7 19 8 32 73 58 60 91 85 70 66 62 58 59 50 41 47 51 61 84 80 60 73 152 172 152 129 131 138 140 142 147 150 150 153 154 154 153 154 155 155 156 155 153 150 148 147 146 145 145 149 153 152 152 154 151 145 145 148 150 146 141 139 139 138 138 139 139 137 136 139 144 148 150 150 153 159 165 166 163 158 154 149 146
347 2 42 105 5 18 47 17 13 70 88 63 54 49 40 43 42 31 36 52 60 82 83 62 46 80 126 138 131 134 144 142 142 153 160 157 154 157 157 155 155 157 158 158 158 155 150 149 149 147 145 148 151 151 148 149 149 146 144 146 146 144 143 142 141 142 140 140 141 140 139 143 151 156 157 158 163 168 170 170 171 170 164 158 153 151
31 22 87 144 100 67 104 327 329 74 105 70 56 44 30 33 36 25 31 40 41 61 83 84 68 73 108 128 135 150 153 147 148 160 165 162 160 161 160 158 157 159 160 160 159 156 151 148 149 149 147 147 148 149 147 146 146 147 147 148 147 146 146 144 143 143 143 143 143 141 144 154 161 162 164 167 171 174 174 173 174 174 168 162 158 160
60 51 52 91 97 87 101 118 72 82 86 78 70 55 30 23 32 42 42 34 29 36 51 74 101 108 123 134 145 162 157 152 158 167 167 166 164 162 162 162 160 162 164 163 160 156 151 150 153 154 150 147 147 148 148 147 148 150 150 150 152 151 148 146 146 146 145 147 147 146 150 161 167 170 173 176 178 181 181 177 174 173 171 168 166 170